Tracking 17140 objects as of 1-July-2015
HD Live streaming from Space Station

CZ-2D DEB

Track CZ-2D DEB now!
10-day predictions
CZ-2D DEB is classified as:


NORAD ID: 35272
Int'l Code: 2005-024L
Perigee: 521.2 km
Apogee: 541.1 km
Inclination: 97.6 °
Period: 95.1 minutes
Semi major axis: 6902 km
RCS: 0.0215 m2 (small)
Launch date: July 5, 2005
Source: People's Republic of China (PRC)

Note: This is SATELLITE DEBRIS
Your satellite tracking list
Your tracking list is empty





NASA's NSSDC Master Catalog

Two Line Element Set (TLE):
1 35272U 05024L   15179.89664616  .00001131  00000-0  65940-4 0  9993
2 35272 097.6466 210.3906 0014438 173.4068 310.5123 15.13995162528999

Source of the keplerian elements: AFSPC

N2YO: 236